Time,TemperatureF,DewpointF,PressureIn,WindDirection,WindDirectionDegrees,WindSpeedMPH,WindSpeedGustMPH,Humidity,HourlyPrecipIn,Conditions,Clouds,dailyrainin,SoftwareType,DateUTC
2013-02-18 00:00:00,15.6,1.5,29.96,North,0,7.4,10.1,53,0.00,,,0.01,WUHU216HW,2013-02-18 05:00:00,
2013-02-18 00:05:00,15.6,1.5,29.96,WNW,293,11.2,11.2,53,0.00,,,0.00,WUHU216HW,2013-02-18 05:05:00,
2013-02-18 00:10:00,15.6,1.5,29.97,North,0,9.4,11.2,53,0.00,,,0.00,WUHU216HW,2013-02-18 05:10:00,
2013-02-18 00:15:00,15.7,1.6,29.97,WNW,293,6.0,14.5,53,0.00,,,0.00,WUHU216HW,2013-02-18 05:15:00,
2013-02-18 00:20:00,15.7,1.6,29.97,NNW,338,6.3,14.5,53,0.00,,,0.00,WUHU216HW,2013-02-18 05:20:00,
2013-02-18 00:25:00,15.7,2.0,29.96,NW,315,7.6,15.2,54,0.00,,,0.00,WUHU216HW,2013-02-18 05:25:00,
2013-02-18 00:26:00,15.7,1.6,29.97,NNW,338,4.7,15.2,53,0.00,,,0.00,WUHU216HW,2013-02-18 05:26:00,
2013-02-18 00:30:00,15.7,1.6,29.97,WNW,293,6.5,15.2,53,0.00,,,0.00,WUHU216HW,2013-02-18 05:30:00,
2013-02-18 00:31:00,15.7,2.0,29.97,WNW,293,4.9,15.2,54,0.00,,,0.00,WUHU216HW,2013-02-18 05:31:00,
2013-02-18 00:35:00,15.7,1.6,29.97,North,0,3.4,11.6,53,0.00,,,0.00,WUHU216HW,2013-02-18 05:35:00,
2013-02-18 00:36:00,15.7,1.6,29.97,WNW,293,12.8,12.8,53,0.00,,,0.00,WUHU216HW,2013-02-18 05:36:00,
2013-02-18 00:40:00,15.7,1.6,29.97,NW,315,6.7,13.4,53,0.00,,,0.00,WUHU216HW,2013-02-18 05:40:00,
2013-02-18 00:41:00,15.7,1.6,29.97,WNW,293,8.3,13.4,53,0.00,,,0.00,WUHU216HW,2013-02-18 05:41:00,
2013-02-18 00:45:00,15.7,1.6,29.97,NNW,338,6.9,13.4,53,0.00,,,0.00,WUHU216HW,2013-02-18 05:45:00,
2013-02-18 00:46:00,15.6,1.5,29.97,North,0,7.8,13.4,53,0.00,,,0.00,WUHU216HW,2013-02-18 05:46:00,
2013-02-18 00:50:00,15.7,2.0,29.97,WNW,293,7.6,13.2,54,0.00,,,0.00,WUHU216HW,2013-02-18 05:50:00,
2013-02-18 00:51:00,15.7,1.6,29.98,WNW,293,13.2,13.2,53,0.00,,,0.00,WUHU216HW,2013-02-18 05:51:00,
2013-02-18 00:55:00,15.6,1.5,29.97,North,0,5.4,13.2,53,0.00,,,0.00,WUHU216HW,2013-02-18 05:55:00,
2013-02-18 00:56:00,15.7,2.0,29.97,NNW,338,6.5,13.2,54,0.00,,,0.00,WUHU216HW,2013-02-18 05:56:00,
2013-02-18 01:00:00,15.6,1.9,29.97,NNW,338,9.8,13.2,54,0.00,,,0.00,WUHU216HW,2013-02-18 06:00:00,
2013-02-18 01:01:00,15.6,1.9,29.97,NNW,338,9.8,11.9,54,0.00,,,0.00,WUHU216HW,2013-02-18 06:01:00,
2013-02-18 01:05:00,15.6,1.5,29.98,NW,315,6.3,12.3,53,0.00,,,0.00,WUHU216HW,2013-02-18 06:05:00,
2013-02-18 01:06:00,15.6,1.5,29.98,WNW,293,15.4,15.4,53,0.00,,,0.00,WUHU216HW,2013-02-18 06:06:00,
2013-02-18 01:07:00,15.6,1.5,29.98,WNW,293,15.4,15.4,53,0.00,,,0.00,WUHU216HW,2013-02-18 06:07:00,
2013-02-18 01:11:00,15.7,1.6,29.97,WSW,248,7.6,15.4,53,0.00,,,0.00,WUHU216HW,2013-02-18 06:11:00,
2013-02-18 01:12:00,15.6,1.5,29.97,WNW,293,6.7,15.4,53,0.00,,,0.00,WUHU216HW,2013-02-18 06:12:00,
2013-02-18 01:16:00,15.6,1.5,29.98,WNW,293,7.8,15.4,53,0.00,,,0.00,WUHU216HW,2013-02-18 06:16:00,
2013-02-18 01:17:00,15.6,1.5,29.98,NNW,338,9.4,15.4,53,0.00,,,0.00,WUHU216HW,2013-02-18 06:17:00,
2013-02-18 01:21:00,15.6,1.5,29.98,NNW,338,4.5,15.4,53,0.00,,,0.00,WUHU216HW,2013-02-18 06:21:00,
2013-02-18 01:22:00,15.6,1.5,29.98,North,0,5.4,15.4,53,0.00,,,0.00,WUHU216HW,2013-02-18 06:22:00,
2013-02-18 01:26:00,15.7,1.6,29.98,NNW,338,6.9,14.5,53,0.00,,,0.00,WUHU216HW,2013-02-18 06:26:00,
2013-02-18 01:27:00,15.7,1.6,29.98,NW,315,5.4,14.5,53,0.00,,,0.00,WUHU216HW,2013-02-18 06:27:00,
2013-02-18 01:31:00,15.6,1.9,29.98,NNW,338,4.7,14.5,54,0.00,,,0.00,WUHU216HW,2013-02-18 06:31:00,
2013-02-18 01:32:00,15.6,1.5,29.98,North,0,8.5,14.5,53,0.00,,,0.00,WUHU216HW,2013-02-18 06:32:00,
2013-02-18 01:36:00,15.6,1.5,29.98,West,270,5.1,10.3,53,0.00,,,0.00,WUHU216HW,2013-02-18 06:36:00,
2013-02-18 01:37:00,15.6,1.9,29.98,NW,315,4.5,10.3,54,0.00,,,0.00,WUHU216HW,2013-02-18 06:37:00,
2013-02-18 01:38:00,15.6,1.9,29.98,West,270,6.0,10.3,54,0.00,,,0.00,WUHU216HW,2013-02-18 06:38:00,
2013-02-18 01:42:00,15.6,1.9,29.98,NNW,338,5.8,10.3,54,0.00,,,0.00,WUHU216HW,2013-02-18 06:42:00,
2013-02-18 01:43:00,15.6,1.9,29.99,NNW,338,6.9,10.3,54,0.00,,,0.00,WUHU216HW,2013-02-18 06:43:00,
2013-02-18 01:47:00,15.6,1.9,29.99,North,0,4.3,9.2,54,0.00,,,0.00,WUHU216HW,2013-02-18 06:47:00,
2013-02-18 01:48:00,15.6,1.9,29.99,North,0,4.3,9.2,54,0.00,,,0.00,WUHU216HW,2013-02-18 06:48:00,
2013-02-18 01:52:00,15.4,1.7,29.99,NW,315,5.4,6.9,54,0.00,,,0.00,WUHU216HW,2013-02-18 06:52:00,
2013-02-18 01:53:00,15.4,1.7,29.99,West,270,9.8,9.8,54,0.00,,,0.00,WUHU216HW,2013-02-18 06:53:00,
2013-02-18 01:57:00,15.4,1.7,29.99,NNW,338,7.8,9.8,54,0.00,,,0.00,WUHU216HW,2013-02-18 06:57:00,
2013-02-18 01:58:00,15.4,1.7,29.99,NNW,338,7.8,9.8,54,0.00,,,0.00,WUHU216HW,2013-02-18 06:58:00,
2013-02-18 02:02:00,15.4,1.7,29.99,North,0,4.7,9.8,54,0.00,,,0.00,WUHU216HW,2013-02-18 07:02:00,
2013-02-18 02:03:00,15.4,1.7,29.99,North,0,4.0,9.2,54,0.00,,,0.00,WUHU216HW,2013-02-18 07:03:00,
2013-02-18 02:04:00,15.4,2.1,29.99,NNW,338,4.7,9.2,55,0.00,,,0.00,WUHU216HW,2013-02-18 07:04:00,
2013-02-18 02:07:00,15.4,2.1,30.00,NW,315,5.4,11.9,55,0.00,,,0.00,WUHU216HW,2013-02-18 07:07:00,
2013-02-18 02:08:00,15.4,2.1,30.00,WNW,293,3.1,11.9,55,0.00,,,0.00,WUHU216HW,2013-02-18 07:08:00,
2013-02-18 02:09:00,15.4,2.1,30.00,WNW,293,9.4,11.9,55,0.00,,,0.00,WUHU216HW,2013-02-18 07:09:00,
2013-02-18 02:13:00,15.4,2.1,30.00,WNW,293,10.1,15.2,55,0.00,,,0.00,WUHU216HW,2013-02-18 07:13:00,
2013-02-18 02:14:00,15.4,2.1,30.00,NNW,338,7.4,15.2,55,0.00,,,0.00,WUHU216HW,2013-02-18 07:14:00,
2013-02-18 02:18:00,15.4,2.1,30.00,NNW,338,6.3,15.2,55,0.00,,,0.00,WUHU216HW,2013-02-18 07:18:00,
2013-02-18 02:19:00,15.2,1.9,30.00,West,270,6.0,15.2,55,0.00,,,0.00,WUHU216HW,2013-02-18 07:19:00,
2013-02-18 02:23:00,15.4,2.1,30.00,North,0,14.3,16.8,55,0.00,,,0.00,WUHU216HW,2013-02-18 07:23:00,
2013-02-18 02:24:00,15.4,1.7,30.00,WNW,293,9.6,16.8,54,0.00,,,0.00,WUHU216HW,2013-02-18 07:24:00,
2013-02-18 02:28:00,15.6,1.9,30.00,North,0,6.3,16.8,54,0.00,,,0.00,WUHU216HW,2013-02-18 07:28:00,
2013-02-18 02:29:00,15.6,1.9,30.00,NNW,338,8.3,16.8,54,0.00,,,0.00,WUHU216HW,2013-02-18 07:29:00,
2013-02-18 02:33:00,15.6,1.9,30.00,NW,315,10.3,11.2,54,0.00,,,0.00,WUHU216HW,2013-02-18 07:33:00,
2013-02-18 02:34:00,15.6,1.9,30.00,NNW,338,6.9,11.2,54,0.00,,,0.00,WUHU216HW,2013-02-18 07:34:00,
2013-02-18 02:38:00,15.4,1.7,30.00,North,0,8.5,10.3,54,0.00,,,0.00,WUHU216HW,2013-02-18 07:38:00,
2013-02-18 02:40:00,15.4,1.7,30.01,WNW,293,15.7,15.7,54,0.00,,,0.00,WUHU216HW,2013-02-18 07:40:00,
2013-02-18 02:43:00,15.4,1.7,30.00,North,0,6.3,15.7,54,0.00,,,0.00,WUHU216HW,2013-02-18 07:43:00,
2013-02-18 02:45:00,15.4,1.7,30.01,North,0,8.9,15.7,54,0.00,,,0.00,WUHU216HW,2013-02-18 07:45:00,
2013-02-18 02:48:00,15.4,2.1,30.01,WNW,293,18.1,18.1,55,0.00,,,0.00,WUHU216HW,2013-02-18 07:48:00,
2013-02-18 02:50:00,15.4,1.7,30.01,North,0,11.2,18.1,54,0.00,,,0.00,WUHU216HW,2013-02-18 07:50:00,
2013-02-18 02:53:00,15.4,2.1,30.01,North,0,9.6,18.1,55,0.00,,,0.00,WUHU216HW,2013-02-18 07:53:00,
2013-02-18 02:55:00,15.4,1.7,30.01,North,0,5.4,18.1,54,0.00,,,0.00,WUHU216HW,2013-02-18 07:55:00,
2013-02-18 02:58:00,15.4,2.1,30.01,NNW,338,13.2,13.2,55,0.00,,,0.00,WUHU216HW,2013-02-18 07:58:00,
2013-02-18 02:59:00,15.4,2.1,30.01,NNW,338,13.2,13.2,55,0.00,,,0.00,WUHU216HW,2013-02-18 07:59:00,
2013-02-18 03:00:00,15.4,2.1,30.01,NNW,338,5.4,13.2,55,0.00,,,0.00,WUHU216HW,2013-02-18 08:00:00,
2013-02-18 03:04:00,15.4,2.1,30.01,NW,315,6.9,13.2,55,0.00,,,0.00,WUHU216HW,2013-02-18 08:04:00,
2013-02-18 03:05:00,15.2,1.9,30.01,NW,315,5.8,13.2,55,0.00,,,0.00,WUHU216HW,2013-02-18 08:05:00,
2013-02-18 03:09:00,15.2,1.9,30.01,WNW,293,6.9,13.0,55,0.00,,,0.00,WUHU216HW,2013-02-18 08:09:00,
2013-02-18 03:11:00,15.2,1.9,30.02,NNW,338,8.5,13.0,55,0.00,,,0.00,WUHU216HW,2013-02-18 08:11:00,
2013-02-18 03:14:00,15.2,1.9,30.02,WNW,293,5.8,13.9,55,0.00,,,0.00,WUHU216HW,2013-02-18 08:14:00,
2013-02-18 03:16:00,15.2,1.9,30.02,NW,315,10.3,13.9,55,0.00,,,0.00,WUHU216HW,2013-02-18 08:16:00,
2013-02-18 03:19:00,15.2,1.9,30.02,NW,315,11.4,13.9,55,0.00,,,0.00,WUHU216HW,2013-02-18 08:19:00,
2013-02-18 03:21:00,15.2,1.9,30.01,North,0,3.4,13.9,55,0.00,,,0.00,WUHU216HW,2013-02-18 08:21:00,
2013-02-18 03:24:00,15.2,1.9,30.01,North,0,4.9,11.4,55,0.00,,,0.00,WUHU216HW,2013-02-18 08:24:00,
2013-02-18 03:26:00,15.2,1.9,30.02,North,0,6.3,15.0,55,0.00,,,0.00,WUHU216HW,2013-02-18 08:26:00,
2013-02-18 03:29:00,15.2,1.9,30.02,NNW,338,9.2,15.0,55,0.00,,,0.00,WUHU216HW,2013-02-18 08:29:00,
2013-02-18 03:31:00,15.2,2.3,30.02,WNW,293,5.1,15.0,56,0.00,,,0.00,WUHU216HW,2013-02-18 08:31:00,
2013-02-18 03:34:00,15.2,2.3,30.02,West,270,6.3,15.0,56,0.00,,,0.00,WUHU216HW,2013-02-18 08:34:00,
2013-02-18 03:35:00,15.2,2.3,30.02,NNE,23,3.4,9.2,56,0.00,,,0.00,WUHU216HW,2013-02-18 08:35:00,
2013-02-18 03:36:00,15.2,1.9,30.02,WNW,293,4.9,9.2,55,0.00,,,0.00,WUHU216HW,2013-02-18 08:36:00,
2013-02-18 03:39:00,15.2,2.3,30.02,NW,315,6.3,9.2,56,0.00,,,0.00,WUHU216HW,2013-02-18 08:39:00,
2013-02-18 03:40:00,15.2,1.9,30.03,North,0,2.5,9.2,55,0.00,,,0.00,WUHU216HW,2013-02-18 08:40:00,
2013-02-18 03:41:00,15.2,2.3,30.02,West,270,5.6,9.2,56,0.00,,,0.00,WUHU216HW,2013-02-18 08:41:00,
2013-02-18 03:44:00,15.0,2.1,30.03,NNW,338,6.9,10.7,56,0.00,,,0.00,WUHU216HW,2013-02-18 08:44:00,
2013-02-18 03:45:00,15.2,2.3,30.03,WNW,293,10.5,10.7,56,0.00,,,0.00,WUHU216HW,2013-02-18 08:45:00,
2013-02-18 03:46:00,15.2,1.9,30.03,North,0,4.3,10.7,55,0.00,,,0.00,WUHU216HW,2013-02-18 08:46:00,
2013-02-18 03:50:00,15.2,1.9,30.02,NNW,338,2.9,13.2,55,0.00,,,0.00,WUHU216HW,2013-02-18 08:50:00,
2013-02-18 03:51:00,15.0,1.7,30.03,NNW,338,6.3,13.2,55,0.00,,,0.00,WUHU216HW,2013-02-18 08:51:00,
2013-02-18 03:55:00,15.0,2.1,30.03,WNW,293,4.0,13.2,56,0.00,,,0.00,WUHU216HW,2013-02-18 08:55:00,
2013-02-18 03:56:00,15.0,2.1,30.03,North,0,3.4,13.2,56,0.00,,,0.00,WUHU216HW,2013-02-18 08:56:00,
2013-02-18 04:00:00,14.8,1.9,30.04,West,270,6.3,7.6,56,0.00,,,0.00,WUHU216HW,2013-02-18 09:00:00,
2013-02-18 04:01:00,14.8,1.9,30.04,WNW,293,7.6,7.6,56,0.00,,,0.00,WUHU216HW,2013-02-18 09:01:00,
2013-02-18 04:05:00,14.8,1.9,30.04,North,0,8.3,8.3,56,0.00,,,0.00,WUHU216HW,2013-02-18 09:05:00,
2013-02-18 04:06:00,14.8,1.9,30.04,NNW,338,7.6,8.3,56,0.00,,,0.00,WUHU216HW,2013-02-18 09:06:00,
2013-02-18 04:10:00,15.0,2.1,30.04,WNW,293,4.9,8.5,56,0.00,,,0.00,WUHU216HW,2013-02-18 09:10:00,
2013-02-18 04:11:00,15.0,2.1,30.05,WNW,293,6.3,8.5,56,0.00,,,0.00,WUHU216HW,2013-02-18 09:11:00,
2013-02-18 04:15:00,15.0,2.1,30.05,WNW,293,12.3,12.3,56,0.00,,,0.00,WUHU216HW,2013-02-18 09:15:00,
2013-02-18 04:16:00,15.0,2.1,30.05,WNW,293,12.3,12.3,56,0.00,,,0.00,WUHU216HW,2013-02-18 09:16:00,
2013-02-18 04:17:00,15.0,2.1,30.05,NW,315,7.4,12.3,56,0.00,,,0.00,WUHU216HW,2013-02-18 09:17:00,
2013-02-18 04:20:00,15.0,2.1,30.05,NNW,338,7.6,12.3,56,0.00,,,0.00,WUHU216HW,2013-02-18 09:20:00,
2013-02-18 04:21:00,15.0,2.1,30.05,NNW,338,7.6,12.3,56,0.00,,,0.00,WUHU216HW,2013-02-18 09:21:00,
2013-02-18 04:22:00,15.0,2.1,30.05,WSW,248,7.4,12.3,56,0.00,,,0.00,WUHU216HW,2013-02-18 09:22:00,
2013-02-18 04:25:00,15.0,2.1,30.05,North,0,6.7,14.1,56,0.00,,,0.00,WUHU216HW,2013-02-18 09:25:00,
2013-02-18 04:26:00,15.0,2.1,30.05,NNW,338,4.0,14.1,56,0.00,,,0.00,WUHU216HW,2013-02-18 09:26:00,
2013-02-18 04:27:00,15.0,2.1,30.05,NW,315,4.7,14.1,56,0.00,,,0.00,WUHU216HW,2013-02-18 09:27:00,
2013-02-18 04:30:00,15.0,2.1,30.05,NNW,338,8.3,14.1,56,0.00,,,0.00,WUHU216HW,2013-02-18 09:30:00,
2013-02-18 04:31:00,14.8,1.9,30.05,WNW,293,4.5,14.1,56,0.00,,,0.00,WUHU216HW,2013-02-18 09:31:00,
2013-02-18 04:32:00,14.8,2.3,30.05,NNW,338,6.9,14.1,57,0.00,,,0.00,WUHU216HW,2013-02-18 09:32:00,
2013-02-18 04:36:00,14.8,2.3,30.06,NW,315,7.6,9.8,57,0.00,,,0.00,WUHU216HW,2013-02-18 09:36:00,
2013-02-18 04:38:00,14.8,2.3,30.06,WNW,293,4.0,9.8,57,0.00,,,0.00,WUHU216HW,2013-02-18 09:38:00,
2013-02-18 04:41:00,14.8,2.3,30.06,WNW,293,7.8,9.8,57,0.00,,,0.00,WUHU216HW,2013-02-18 09:41:00,
2013-02-18 04:42:00,14.8,2.3,30.06,North,0,9.2,9.8,57,0.00,,,0.00,WUHU216HW,2013-02-18 09:42:00,
2013-02-18 04:43:00,14.8,2.3,30.06,North,0,14.1,14.1,57,0.00,,,0.00,WUHU216HW,2013-02-18 09:43:00,
2013-02-18 04:46:00,14.8,2.3,30.06,NW,315,9.8,14.1,57,0.00,,,0.00,WUHU216HW,2013-02-18 09:46:00,
2013-02-18 04:47:00,14.8,2.3,30.06,NNW,338,9.2,14.1,57,0.00,,,0.00,WUHU216HW,2013-02-18 09:47:00,
2013-02-18 04:48:00,14.8,2.3,30.06,NW,315,4.0,14.1,57,0.00,,,0.00,WUHU216HW,2013-02-18 09:48:00,
2013-02-18 04:51:00,14.8,2.3,30.06,WNW,293,4.7,14.1,57,0.00,,,0.00,WUHU216HW,2013-02-18 09:51:00,
2013-02-18 04:52:00,14.8,2.3,30.06,WNW,293,4.7,14.1,57,0.00,,,0.00,WUHU216HW,2013-02-18 09:52:00,
2013-02-18 04:53:00,14.8,2.3,30.07,NW,315,5.8,14.1,57,0.00,,,0.00,WUHU216HW,2013-02-18 09:53:00,
2013-02-18 04:56:00,14.7,2.2,30.07,North,0,8.7,9.8,57,0.00,,,0.00,WUHU216HW,2013-02-18 09:56:00,
2013-02-18 04:57:00,14.7,2.2,30.07,North,0,8.7,9.8,57,0.00,,,0.00,WUHU216HW,2013-02-18 09:57:00,
2013-02-18 04:58:00,14.7,2.2,30.06,North,0,2.5,9.8,57,0.00,,,0.00,WUHU216HW,2013-02-18 09:58:00,
2013-02-18 05:01:00,14.7,2.6,30.07,NW,315,3.1,9.8,58,0.00,,,0.00,WUHU216HW,2013-02-18 10:01:00,
2013-02-18 05:02:00,14.7,2.6,30.07,NW,315,3.1,9.8,58,0.00,,,0.00,WUHU216HW,2013-02-18 10:02:00,
2013-02-18 05:03:00,14.7,2.6,30.07,NW,315,4.3,9.8,58,0.00,,,0.00,WUHU216HW,2013-02-18 10:03:00,
2013-02-18 05:04:00,14.7,2.6,30.07,NNW,338,3.8,9.8,58,0.00,,,0.00,WUHU216HW,2013-02-18 10:04:00,
2013-02-18 05:06:00,14.7,2.6,30.07,NNW,338,2.5,6.9,58,0.00,,,0.00,WUHU216HW,2013-02-18 10:06:00,
2013-02-18 05:07:00,14.7,2.6,30.07,NNW,338,2.5,6.9,58,0.00,,,0.00,WUHU216HW,2013-02-18 10:07:00,
2013-02-18 05:08:00,14.7,2.6,30.07,WNW,293,0.7,6.9,58,0.00,,,0.00,WUHU216HW,2013-02-18 10:08:00,
2013-02-18 05:09:00,14.7,2.6,30.07,North,0,3.4,6.9,58,0.00,,,0.00,WUHU216HW,2013-02-18 10:09:00,
2013-02-18 05:12:00,14.5,2.4,30.07,North,0,7.2,7.6,58,0.00,,,0.00,WUHU216HW,2013-02-18 10:12:00,
2013-02-18 05:13:00,14.5,2.4,30.07,NNW,338,7.6,7.6,58,0.00,,,0.00,WUHU216HW,2013-02-18 10:13:00,
2013-02-18 05:14:00,14.5,2.4,30.07,North,0,7.8,7.8,58,0.00,,,0.00,WUHU216HW,2013-02-18 10:14:00,
2013-02-18 05:17:00,14.7,2.6,30.07,NW,315,2.5,7.8,58,0.00,,,0.00,WUHU216HW,2013-02-18 10:17:00,
2013-02-18 05:18:00,14.7,2.6,30.07,WNW,293,8.1,8.1,58,0.00,,,0.00,WUHU216HW,2013-02-18 10:18:00,
2013-02-18 05:19:00,14.7,2.6,30.07,NNW,338,6.9,8.1,58,0.00,,,0.00,WUHU216HW,2013-02-18 10:19:00,
2013-02-18 05:22:00,14.5,2.4,30.07,NNW,338,6.5,8.1,58,0.00,,,0.00,WUHU216HW,2013-02-18 10:22:00,
2013-02-18 05:24:00,14.5,2.4,30.07,NNW,338,6.5,8.1,58,0.00,,,0.00,WUHU216HW,2013-02-18 10:24:00,
2013-02-18 05:27:00,14.5,2.4,30.07,NNW,338,6.5,8.1,58,0.00,,,0.00,WUHU216HW,2013-02-18 10:27:00,
2013-02-18 05:29:00,14.5,2.4,30.07,NNW,338,6.5,6.9,58,0.00,,,0.00,WUHU216HW,2013-02-18 10:29:00,
2013-02-18 05:50:00,14.5,2.8,30.10,NW,315,6.3,6.3,59,0.00,,,0.00,WUHU216HW,2013-02-18 10:50:00,
2013-02-18 05:55:00,14.5,2.8,30.10,NNE,23,6.0,11.9,59,0.00,,,0.00,WUHU216HW,2013-02-18 10:55:00,
2013-02-18 06:00:00,14.5,2.8,30.10,North,0,3.4,17.4,59,0.00,,,0.00,WUHU216HW,2013-02-18 11:00:00,
2013-02-18 06:01:00,14.5,2.8,30.10,NW,315,5.8,17.4,59,0.00,,,0.00,WUHU216HW,2013-02-18 11:01:00,
2013-02-18 06:05:00,14.5,3.2,30.10,NNW,338,11.4,17.4,60,0.00,,,0.00,WUHU216HW,2013-02-18 11:05:00,
2013-02-18 06:06:00,14.5,2.8,30.10,NW,315,11.2,17.4,59,0.00,,,0.00,WUHU216HW,2013-02-18 11:06:00,
2013-02-18 06:10:00,14.7,3.4,30.10,NNW,338,5.4,11.4,60,0.00,,,0.00,WUHU216HW,2013-02-18 11:10:00,
2013-02-18 06:11:00,14.7,3.4,30.10,WSW,248,10.5,11.4,60,0.00,,,0.00,WUHU216HW,2013-02-18 11:11:00,
2013-02-18 06:15:00,14.5,3.2,30.10,NW,315,10.7,11.2,60,0.00,,,0.00,WUHU216HW,2013-02-18 11:15:00,
2013-02-18 06:16:00,14.5,3.2,30.10,NW,315,10.7,11.2,60,0.00,,,0.00,WUHU216HW,2013-02-18 11:16:00,
2013-02-18 06:20:00,14.5,3.2,30.11,West,270,11.2,11.2,60,0.00,,,0.00,WUHU216HW,2013-02-18 11:20:00,
2013-02-18 06:21:00,14.5,3.2,30.11,NNW,338,8.5,11.2,60,0.00,,,0.00,WUHU216HW,2013-02-18 11:21:00,
2013-02-18 06:25:00,14.5,3.2,30.11,NW,315,13.4,14.5,60,0.00,,,0.00,WUHU216HW,2013-02-18 11:25:00,
2013-02-18 06:26:00,14.5,3.2,30.11,WNW,293,6.3,14.5,60,0.00,,,0.00,WUHU216HW,2013-02-18 11:26:00,
2013-02-18 06:30:00,14.5,3.2,30.12,North,0,4.7,14.5,60,0.00,,,0.00,WUHU216HW,2013-02-18 11:30:00,
2013-02-18 06:31:00,14.5,3.2,30.12,NW,315,5.4,14.5,60,0.00,,,0.00,WUHU216HW,2013-02-18 11:31:00,
2013-02-18 06:35:00,14.5,3.2,30.12,WNW,293,6.5,12.3,60,0.00,,,0.00,WUHU216HW,2013-02-18 11:35:00,
2013-02-18 06:36:00,14.5,3.2,30.12,NW,315,8.1,12.3,60,0.00,,,0.00,WUHU216HW,2013-02-18 11:36:00,
2013-02-18 06:41:00,14.5,3.2,30.12,North,0,6.3,12.5,60,0.00,,,0.00,WUHU216HW,2013-02-18 11:41:00,
2013-02-18 06:46:00,14.5,3.2,30.12,NNW,338,4.0,12.5,60,0.00,,,0.00,WUHU216HW,2013-02-18 11:46:00,
2013-02-18 06:47:00,14.5,3.2,30.12,North,0,3.4,12.5,60,0.00,,,0.00,WUHU216HW,2013-02-18 11:47:00,
2013-02-18 06:51:00,14.5,3.2,30.12,NW,315,8.1,12.1,60,0.00,,,0.00,WUHU216HW,2013-02-18 11:51:00,
2013-02-18 06:52:00,14.5,3.2,30.12,North,0,6.0,12.1,60,0.00,,,0.00,WUHU216HW,2013-02-18 11:52:00,
2013-02-18 06:56:00,14.5,3.2,30.12,NNW,338,6.3,12.1,60,0.00,,,0.00,WUHU216HW,2013-02-18 11:56:00,
2013-02-18 06:57:00,14.5,3.2,30.12,NNW,338,6.7,12.1,60,0.00,,,0.00,WUHU216HW,2013-02-18 11:57:00,
2013-02-18 07:01:00,14.5,3.2,30.13,North,0,5.1,11.4,60,0.00,,,0.00,WUHU216HW,2013-02-18 12:01:00,
2013-02-18 07:02:00,14.5,3.2,30.12,North,0,12.8,12.8,60,0.00,,,0.00,WUHU216HW,2013-02-18 12:02:00,
2013-02-18 07:06:00,14.5,3.2,30.13,NNE,23,6.9,12.8,60,0.00,,,0.00,WUHU216HW,2013-02-18 12:06:00,
2013-02-18 07:07:00,14.5,3.2,30.12,North,0,4.7,12.8,60,0.00,,,0.00,WUHU216HW,2013-02-18 12:07:00,
2013-02-18 07:11:00,14.5,3.2,30.13,WNW,293,9.2,12.8,60,0.00,,,0.00,WUHU216HW,2013-02-18 12:11:00,
2013-02-18 07:12:00,14.7,3.4,30.13,WNW,293,7.8,10.7,60,0.00,,,0.00,WUHU216HW,2013-02-18 12:12:00,
2013-02-18 07:16:00,14.7,3.4,30.13,North,0,10.7,12.5,60,0.00,,,0.00,WUHU216HW,2013-02-18 12:16:00,
2013-02-18 07:17:00,14.7,3.0,30.13,NW,315,13.9,13.9,59,0.00,,,0.00,WUHU216HW,2013-02-18 12:17:00,
2013-02-18 07:21:00,14.8,3.1,30.13,NNW,338,5.4,13.9,59,0.00,,,0.00,WUHU216HW,2013-02-18 12:21:00,
2013-02-18 07:22:00,14.8,3.1,30.13,NNW,338,5.4,13.9,59,0.00,,,0.00,WUHU216HW,2013-02-18 12:22:00,
2013-02-18 07:26:00,14.8,3.1,30.14,North,0,4.0,13.9,59,0.00,,,0.00,WUHU216HW,2013-02-18 12:26:00,
2013-02-18 07:27:00,14.8,3.1,30.14,NW,315,2.5,9.8,59,0.00,,,0.00,WUHU216HW,2013-02-18 12:27:00,
2013-02-18 07:28:00,14.8,3.1,30.14,NW,315,2.5,9.8,59,0.00,,,0.00,WUHU216HW,2013-02-18 12:28:00,
2013-02-18 07:31:00,15.2,3.5,30.15,North,0,4.3,9.8,59,0.00,,,0.00,WUHU216HW,2013-02-18 12:31:00,
2013-02-18 07:32:00,15.2,3.5,30.15,North,0,3.4,9.8,59,0.00,,,0.00,WUHU216HW,2013-02-18 12:32:00,
2013-02-18 07:33:00,15.4,3.6,30.15,SW,225,6.0,9.8,59,0.00,,,0.00,WUHU216HW,2013-02-18 12:33:00,
2013-02-18 07:36:00,15.7,3.9,30.15,NNW,338,5.8,7.6,59,0.00,,,0.00,WUHU216HW,2013-02-18 12:36:00,
2013-02-18 07:37:00,15.7,3.9,30.15,SW,225,6.9,7.6,59,0.00,,,0.00,WUHU216HW,2013-02-18 12:37:00,
2013-02-18 07:38:00,15.7,3.9,30.15,North,0,6.3,7.6,59,0.00,,,0.00,WUHU216HW,2013-02-18 12:38:00,
2013-02-18 07:41:00,15.7,3.6,30.15,North,0,5.4,9.4,58,0.00,,,0.00,WUHU216HW,2013-02-18 12:41:00,
2013-02-18 07:42:00,15.6,3.5,30.15,NNW,338,2.5,9.4,58,0.00,,,0.00,WUHU216HW,2013-02-18 12:42:00,
2013-02-18 07:43:00,15.6,3.5,30.15,NNE,23,6.3,9.4,58,0.00,,,0.00,WUHU216HW,2013-02-18 12:43:00,
2013-02-18 07:47:00,15.6,3.5,30.15,North,0,4.0,10.5,58,0.00,,,0.00,WUHU216HW,2013-02-18 12:47:00,
2013-02-18 07:48:00,15.6,3.5,30.15,North,0,8.1,10.5,58,0.00,,,0.00,WUHU216HW,2013-02-18 12:48:00,
2013-02-18 07:52:00,15.4,3.3,30.15,NNE,23,1.8,10.5,58,0.00,,,0.00,WUHU216HW,2013-02-18 12:52:00,
2013-02-18 07:53:00,15.6,3.5,30.15,NNE,23,2.5,10.5,58,0.00,,,0.00,WUHU216HW,2013-02-18 12:53:00,
2013-02-18 07:57:00,15.7,3.9,30.15,NW,315,9.8,9.8,59,0.00,,,0.00,WUHU216HW,2013-02-18 12:57:00,
2013-02-18 07:58:00,16.1,4.3,30.16,NNW,338,11.0,11.0,59,0.00,,,0.00,WUHU216HW,2013-02-18 12:58:00,
2013-02-18 08:02:00,16.6,4.4,30.15,North,0,6.9,11.0,58,0.00,,,0.00,WUHU216HW,2013-02-18 13:02:00,
2013-02-18 08:03:00,16.6,4.4,30.15,NNW,338,5.6,11.0,58,0.00,,,0.00,WUHU216HW,2013-02-18 13:03:00,
2013-02-18 08:07:00,17.2,4.6,30.16,NW,315,4.7,11.0,57,0.00,,,0.00,WUHU216HW,2013-02-18 13:07:00,
2013-02-18 08:08:00,17.4,4.7,30.16,NNW,338,4.7,8.5,57,0.00,,,0.00,WUHU216HW,2013-02-18 13:08:00,
2013-02-18 08:12:00,17.7,4.6,30.16,NW,315,6.0,10.3,56,0.00,,,0.00,WUHU216HW,2013-02-18 13:12:00,
2013-02-18 08:13:00,17.7,4.6,30.17,NNE,23,4.7,10.3,56,0.00,,,0.00,WUHU216HW,2013-02-18 13:13:00,
2013-02-18 08:17:00,17.3,3.9,30.16,NNW,338,6.9,10.3,55,0.00,,,0.00,WUHU216HW,2013-02-18 13:17:00,
2013-02-18 08:18:00,17.3,3.9,30.16,NNW,338,6.9,10.3,55,0.00,,,0.00,WUHU216HW,2013-02-18 13:18:00,
2013-02-18 08:22:00,17.3,4.3,30.17,North,0,2.5,9.8,56,0.00,,,0.00,WUHU216HW,2013-02-18 13:22:00,
2013-02-18 08:23:00,17.4,4.4,30.17,North,0,2.5,9.8,56,0.00,,,0.00,WUHU216HW,2013-02-18 13:23:00,
2013-02-18 08:27:00,18.2,5.1,30.17,NW,315,3.1,9.8,56,0.00,,,0.00,WUHU216HW,2013-02-18 13:27:00,
2013-02-18 08:28:00,18.3,5.2,30.17,ENE,68,0.7,8.7,56,0.00,,,0.00,WUHU216HW,2013-02-18 13:28:00,
2013-02-18 08:29:00,18.5,5.4,30.17,North,0,4.9,6.7,56,0.00,,,0.00,WUHU216HW,2013-02-18 13:29:00,
2013-02-18 08:32:00,18.7,5.2,30.17,North,0,4.7,6.5,55,0.00,,,0.00,WUHU216HW,2013-02-18 13:32:00,
2013-02-18 08:33:00,18.5,5.0,30.17,NNW,338,8.3,8.3,55,0.00,,,0.00,WUHU216HW,2013-02-18 13:33:00,
2013-02-18 08:34:00,18.7,5.2,30.18,North,0,4.7,8.3,55,0.00,,,0.00,WUHU216HW,2013-02-18 13:34:00,
2013-02-18 08:38:00,18.7,5.2,30.18,NNE,23,4.0,8.3,55,0.00,,,0.00,WUHU216HW,2013-02-18 13:38:00,
2013-02-18 08:39:00,19.1,5.5,30.18,NE,45,1.8,8.3,55,0.00,,,0.00,WUHU216HW,2013-02-18 13:39:00,
2013-02-18 08:43:00,18.9,5.3,30.18,West,270,8.1,8.3,55,0.00,,,0.00,WUHU216HW,2013-02-18 13:43:00,
2013-02-18 08:44:00,19.0,5.5,30.18,North,0,1.8,8.1,55,0.00,,,0.00,WUHU216HW,2013-02-18 13:44:00,
2013-02-18 08:48:00,19.0,5.5,30.18,WNW,293,4.7,8.1,55,0.00,,,0.00,WUHU216HW,2013-02-18 13:48:00,
2013-02-18 08:49:00,19.3,5.8,30.18,WNW,293,4.0,8.1,55,0.00,,,0.00,WUHU216HW,2013-02-18 13:49:00,
2013-02-18 08:53:00,19.3,5.4,30.18,North,0,6.0,6.0,54,0.00,,,0.00,WUHU216HW,2013-02-18 13:53:00,
2013-02-18 08:54:00,19.3,5.4,30.19,North,0,3.1,6.0,54,0.00,,,0.00,WUHU216HW,2013-02-18 13:54:00,
2013-02-18 08:58:00,19.0,5.1,30.18,North,0,6.9,6.9,54,0.00,,,0.00,WUHU216HW,2013-02-18 13:58:00,
2013-02-18 08:59:00,19.0,5.1,30.19,NNE,23,4.0,6.9,54,0.00,,,0.00,WUHU216HW,2013-02-18 13:59:00,
2013-02-18 09:03:00,19.3,5.7,30.18,West,270,4.9,6.9,55,0.00,,,0.00,WUHU216HW,2013-02-18 14:03:00,
2013-02-18 09:04:00,19.5,5.5,30.18,NW,315,4.3,6.9,54,0.00,,,0.00,WUHU216HW,2013-02-18 14:04:00,
2013-02-18 09:08:00,20.2,5.7,30.19,NNW,338,6.3,6.9,53,0.00,,,0.00,WUHU216HW,2013-02-18 14:08:00,
2013-02-18 09:09:00,20.2,5.7,30.18,WNW,293,6.3,6.9,53,0.00,,,0.00,WUHU216HW,2013-02-18 14:09:00,
2013-02-18 09:14:00,20.7,6.3,30.19,NNW,338,4.7,6.9,53,0.00,,,0.00,WUHU216HW,2013-02-18 14:14:00,
2013-02-18 09:19:00,20.3,5.4,30.19,West,270,4.7,9.2,52,0.00,,,0.00,WUHU216HW,2013-02-18 14:19:00,
2013-02-18 09:24:00,20.3,5.4,30.19,WNW,293,10.3,12.5,52,0.00,,,0.00,WUHU216HW,2013-02-18 14:24:00,
2013-02-18 09:25:00,20.5,5.6,30.19,WSW,248,4.3,12.5,52,0.00,,,0.00,WUHU216HW,2013-02-18 14:25:00,
2013-02-18 09:29:00,20.7,5.8,30.19,WNW,293,7.6,12.5,52,0.00,,,0.00,WUHU216HW,2013-02-18 14:29:00,
2013-02-18 09:30:00,20.7,5.8,30.20,NW,315,5.6,10.3,52,0.00,,,0.00,WUHU216HW,2013-02-18 14:30:00,
2013-02-18 09:34:00,20.5,5.6,30.19,NNW,338,3.1,7.6,52,0.00,,,0.00,WUHU216HW,2013-02-18 14:34:00,
2013-02-18 09:35:00,20.3,5.4,30.19,NNW,338,8.1,8.1,52,0.00,,,0.00,WUHU216HW,2013-02-18 14:35:00,
2013-02-18 09:39:00,20.3,5.4,30.19,West,270,6.3,8.7,52,0.00,,,0.00,WUHU216HW,2013-02-18 14:39:00,
2013-02-18 09:40:00,20.3,5.4,30.19,West,270,6.3,8.7,52,0.00,,,0.00,WUHU216HW,2013-02-18 14:40:00,
2013-02-18 09:44:00,20.9,6.0,30.19,WNW,293,4.5,13.2,52,0.00,,,0.00,WUHU216HW,2013-02-18 14:44:00,
2013-02-18 09:45:00,21.1,6.2,30.19,WNW,293,8.5,13.2,52,0.00,,,0.00,WUHU216HW,2013-02-18 14:45:00,
2013-02-18 09:50:00,21.8,6.4,30.19,NNW,338,8.1,13.2,51,0.00,,,0.00,WUHU216HW,2013-02-18 14:50:00,
2013-02-18 09:55:00,22.4,6.5,30.19,WNW,293,1.8,8.5,50,0.00,,,0.00,WUHU216HW,2013-02-18 14:55:00,
2013-02-18 10:00:00,23.1,6.2,30.19,West,270,9.4,9.4,48,0.00,,,0.00,WUHU216HW,2013-02-18 15:00:00,
2013-02-18 10:05:00,23.4,6.5,30.19,North,0,5.1,9.4,48,0.00,,,0.00,WUHU216HW,2013-02-18 15:05:00,
2013-02-18 10:10:00,22.7,5.8,30.19,NNW,338,5.6,9.4,48,0.00,,,0.00,WUHU216HW,2013-02-18 15:10:00,
2013-02-18 10:11:00,22.7,5.8,30.19,NW,315,1.8,9.4,48,0.00,,,0.00,WUHU216HW,2013-02-18 15:11:00,
2013-02-18 10:15:00,23.3,6.4,30.20,West,270,11.9,11.9,48,0.00,,,0.00,WUHU216HW,2013-02-18 15:15:00,
2013-02-18 10:16:00,23.3,6.4,30.20,West,270,11.9,11.9,48,0.00,,,0.00,WUHU216HW,2013-02-18 15:16:00,
2013-02-18 10:20:00,24.1,7.2,30.20,North,0,6.3,11.9,48,0.00,,,0.00,WUHU216HW,2013-02-18 15:20:00,
2013-02-18 10:21:00,23.9,6.5,30.20,WNW,293,7.6,11.9,47,0.00,,,0.00,WUHU216HW,2013-02-18 15:21:00,
2013-02-18 10:25:00,24.2,6.8,30.20,WNW,293,6.7,7.8,47,0.00,,,0.00,WUHU216HW,2013-02-18 15:25:00,
2013-02-18 10:26:00,24.2,6.8,30.20,WNW,293,6.7,7.8,47,0.00,,,0.00,WUHU216HW,2013-02-18 15:26:00,
2013-02-18 10:30:00,24.4,6.9,30.20,WNW,293,8.9,8.9,47,0.00,,,0.00,WUHU216HW,2013-02-18 15:30:00,
2013-02-18 10:31:00,24.4,6.9,30.20,WNW,293,8.9,8.9,47,0.00,,,0.00,WUHU216HW,2013-02-18 15:31:00,
2013-02-18 10:35:00,24.4,6.4,30.20,WNW,293,6.3,10.5,46,0.00,,,0.00,WUHU216HW,2013-02-18 15:35:00,
2013-02-18 10:36:00,24.4,6.4,30.20,WNW,293,5.8,10.5,46,0.00,,,0.00,WUHU216HW,2013-02-18 15:36:00,
2013-02-18 10:40:00,24.4,5.9,30.20,WNW,293,8.7,11.9,45,0.00,,,0.00,WUHU216HW,2013-02-18 15:40:00,
2013-02-18 10:41:00,24.4,5.9,30.20,WNW,293,8.7,11.9,45,0.00,,,0.00,WUHU216HW,2013-02-18 15:41:00,
2013-02-18 10:46:00,24.6,7.1,30.20,North,0,7.2,11.9,47,0.00,,,0.00,WUHU216HW,2013-02-18 15:46:00,
2013-02-18 10:51:00,25.2,7.2,30.20,WNW,293,3.4,8.1,46,0.00,,,0.00,WUHU216HW,2013-02-18 15:51:00,
2013-02-18 10:56:00,26.1,7.0,30.20,NNW,338,9.2,10.1,44,0.00,,,0.00,WUHU216HW,2013-02-18 15:56:00,
2013-02-18 11:01:00,26.1,7.0,30.21,West,270,7.6,10.1,44,0.00,,,0.00,WUHU216HW,2013-02-18 16:01:00,
2013-02-18 11:06:00,25.9,6.8,30.20,NNW,338,2.9,8.1,44,0.00,,,0.00,WUHU216HW,2013-02-18 16:06:00,
2013-02-18 11:07:00,25.8,6.7,30.20,WNW,293,2.9,8.1,44,0.00,,,0.00,WUHU216HW,2013-02-18 16:07:00,
2013-02-18 11:11:00,26.1,7.5,30.20,NW,315,2.0,7.2,45,0.00,,,0.00,WUHU216HW,2013-02-18 16:11:00,
2013-02-18 11:12:00,26.3,7.2,30.20,North,0,3.4,7.2,44,0.00,,,0.00,WUHU216HW,2013-02-18 16:12:00,
2013-02-18 11:16:00,26.8,7.6,30.20,North,0,8.5,8.7,44,0.00,,,0.00,WUHU216HW,2013-02-18 16:16:00,
2013-02-18 11:17:00,26.7,7.5,30.20,North,0,5.8,8.7,44,0.00,,,0.00,WUHU216HW,2013-02-18 16:17:00,
2013-02-18 11:21:00,26.8,7.6,30.21,NW,315,6.3,8.7,44,0.00,,,0.00,WUHU216HW,2013-02-18 16:21:00,
2013-02-18 11:22:00,26.8,7.1,30.21,WSW,248,4.7,8.7,43,0.00,,,0.00,WUHU216HW,2013-02-18 16:22:00,
2013-02-18 11:26:00,27.3,7.6,30.21,WNW,293,2.7,9.2,43,0.00,,,0.00,WUHU216HW,2013-02-18 16:26:00,
2013-02-18 11:27:00,27.5,7.8,30.20,WSW,248,9.2,9.2,43,0.00,,,0.00,WUHU216HW,2013-02-18 16:27:00,
2013-02-18 11:31:00,28.2,8.9,30.20,NNW,338,3.4,9.2,44,0.00,,,0.00,WUHU216HW,2013-02-18 16:31:00,
2013-02-18 11:32:00,28.2,8.4,30.21,North,0,3.4,9.2,43,0.00,,,0.00,WUHU216HW,2013-02-18 16:32:00,
2013-02-18 11:36:00,28.0,8.2,30.20,SW,225,4.3,9.2,43,0.00,,,0.00,WUHU216HW,2013-02-18 16:36:00,
2013-02-18 11:37:00,28.2,8.4,30.20,West,270,4.7,5.8,43,0.00,,,0.00,WUHU216HW,2013-02-18 16:37:00,
2013-02-18 11:41:00,28.9,8.5,30.20,WNW,293,2.9,6.9,42,0.00,,,0.00,WUHU216HW,2013-02-18 16:41:00,
2013-02-18 11:42:00,28.7,8.3,30.20,North,0,3.4,6.9,42,0.00,,,0.00,WUHU216HW,2013-02-18 16:42:00,
2013-02-18 11:47:00,28.5,7.6,30.21,West,270,9.2,9.2,41,0.00,,,0.00,WUHU216HW,2013-02-18 16:47:00,
2013-02-18 11:51:00,28.2,6.7,30.20,NNW,338,7.6,9.2,40,0.00,,,0.00,WUHU216HW,2013-02-18 16:51:00,
2013-02-18 11:52:00,28.2,6.7,30.20,NNW,338,7.6,9.2,40,0.00,,,0.00,WUHU216HW,2013-02-18 16:52:00,
2013-02-18 11:56:00,27.8,6.4,30.20,NNW,338,4.9,7.6,40,0.00,,,0.00,WUHU216HW,2013-02-18 16:56:00,
2013-02-18 11:57:00,27.8,6.4,30.20,NNW,338,4.9,7.6,40,0.00,,,0.00,WUHU216HW,2013-02-18 16:57:00,
2013-02-18 12:02:00,28.5,8.1,30.20,NNW,338,6.3,6.9,42,0.00,,,0.00,WUHU216HW,2013-02-18 17:02:00,
2013-02-18 12:03:00,28.7,8.3,30.20,NW,315,4.7,6.9,42,0.00,,,0.00,WUHU216HW,2013-02-18 17:03:00,
2013-02-18 12:07:00,29.1,7.5,30.20,North,0,3.1,8.1,40,0.00,,,0.00,WUHU216HW,2013-02-18 17:07:00,
2013-02-18 12:12:00,28.3,7.4,30.20,West,270,6.3,8.1,41,0.00,,,0.00,WUHU216HW,2013-02-18 17:12:00,
2013-02-18 12:17:00,28.8,7.9,30.20,NNW,338,5.4,8.1,41,0.00,,,0.00,WUHU216HW,2013-02-18 17:17:00,
2013-02-18 12:18:00,28.8,7.9,30.20,West,270,4.0,8.1,41,0.00,,,0.00,WUHU216HW,2013-02-18 17:18:00,
2013-02-18 12:22:00,29.0,6.9,30.20,West,270,4.5,10.3,39,0.00,,,0.00,WUHU216HW,2013-02-18 17:22:00,
2013-02-18 12:23:00,29.0,6.9,30.20,WNW,293,4.9,10.3,39,0.00,,,0.00,WUHU216HW,2013-02-18 17:23:00,
2013-02-18 12:27:00,29.2,8.2,30.20,North,0,4.0,10.3,41,0.00,,,0.00,WUHU216HW,2013-02-18 17:27:00,
2013-02-18 12:28:00,29.2,8.2,30.20,North,0,4.0,10.3,41,0.00,,,0.00,WUHU216HW,2013-02-18 17:28:00,
2013-02-18 12:29:00,29.3,7.8,30.20,West,270,8.5,10.3,40,0.00,,,0.00,WUHU216HW,2013-02-18 17:29:00,
2013-02-18 12:32:00,29.7,8.1,30.20,WNW,293,6.7,8.5,40,0.00,,,0.00,WUHU216HW,2013-02-18 17:32:00,
2013-02-18 12:33:00,29.7,8.1,30.20,WNW,293,6.7,8.5,40,0.00,,,0.00,WUHU216HW,2013-02-18 17:33:00,
2013-02-18 12:34:00,29.7,8.1,30.20,WNW,293,11.4,11.4,40,0.00,,,0.00,WUHU216HW,2013-02-18 17:34:00,
2013-02-18 12:38:00,29.7,8.7,30.19,NW,315,6.7,11.4,41,0.00,,,0.00,WUHU216HW,2013-02-18 17:38:00,
2013-02-18 12:39:00,29.9,8.8,30.19,NNW,338,6.3,11.4,41,0.00,,,0.00,WUHU216HW,2013-02-18 17:39:00,
2013-02-18 12:43:00,30.1,8.5,30.19,NNW,338,5.4,12.1,40,0.00,,,0.00,WUHU216HW,2013-02-18 17:43:00,
2013-02-18 12:44:00,29.9,7.7,30.19,SW,225,6.0,12.1,39,0.00,,,0.00,WUHU216HW,2013-02-18 17:44:00,
2013-02-18 12:48:00,29.7,6.9,30.19,NW,315,7.8,12.1,38,0.00,,,0.00,WUHU216HW,2013-02-18 17:48:00,
2013-02-18 12:49:00,29.7,6.9,30.19,NNW,338,6.0,12.1,38,0.00,,,0.00,WUHU216HW,2013-02-18 17:49:00,
2013-02-18 12:53:00,30.2,8.0,30.18,WSW,248,2.9,8.9,39,0.00,,,0.00,WUHU216HW,2013-02-18 17:53:00,
2013-02-18 12:54:00,30.6,8.9,30.19,NW,315,5.1,8.9,40,0.00,,,0.00,WUHU216HW,2013-02-18 17:54:00,
2013-02-18 12:58:00,29.9,6.5,30.18,West,270,7.6,8.9,37,0.00,,,0.00,WUHU216HW,2013-02-18 17:58:00,
2013-02-18 12:59:00,29.9,7.1,30.19,NNW,338,7.6,8.9,38,0.00,,,0.00,WUHU216HW,2013-02-18 17:59:00,
2013-02-18 13:03:00,30.1,7.3,30.18,WNW,293,4.7,8.5,38,0.00,,,0.00,WUHU216HW,2013-02-18 18:03:00,
2013-02-18 13:04:00,30.1,7.3,30.18,WNW,293,7.4,8.5,38,0.00,,,0.00,WUHU216HW,2013-02-18 18:04:00,
2013-02-18 13:08:00,30.4,8.1,30.18,West,270,5.8,9.6,39,0.00,,,0.00,WUHU216HW,2013-02-18 18:08:00,
2013-02-18 13:09:00,30.6,8.3,30.18,NNW,338,6.3,9.6,39,0.00,,,0.00,WUHU216HW,2013-02-18 18:09:00,
2013-02-18 13:13:00,31.2,9.5,30.18,West,270,4.3,9.6,40,0.00,,,0.00,WUHU216HW,2013-02-18 18:13:00,
2013-02-18 13:14:00,31.2,9.5,30.18,WNW,293,3.4,9.6,40,0.00,,,0.00,WUHU216HW,2013-02-18 18:14:00,
2013-02-18 13:19:00,31.9,9.0,30.18,NNW,338,7.4,8.7,38,0.00,,,0.00,WUHU216HW,2013-02-18 18:19:00,
2013-02-18 13:20:00,31.8,8.9,30.18,NW,315,4.9,8.7,38,0.00,,,0.00,WUHU216HW,2013-02-18 18:20:00,
2013-02-18 13:24:00,31.6,9.3,30.18,NNW,338,6.0,8.7,39,0.00,,,0.00,WUHU216HW,2013-02-18 18:24:00,
2013-02-18 13:25:00,31.6,9.3,30.18,NW,315,6.9,8.7,39,0.00,,,0.00,WUHU216HW,2013-02-18 18:25:00,
2013-02-18 13:29:00,31.6,9.3,30.18,North,0,6.5,7.4,39,0.00,,,0.00,WUHU216HW,2013-02-18 18:29:00,
2013-02-18 13:30:00,31.4,8.5,30.18,North,0,4.9,7.4,38,0.00,,,0.00,WUHU216HW,2013-02-18 18:30:00,
2013-02-18 13:34:00,31.2,8.3,30.17,WNW,293,5.4,7.4,38,0.00,,,0.00,WUHU216HW,2013-02-18 18:34:00,
2013-02-18 13:35:00,31.2,8.3,30.17,NNW,338,1.3,7.4,38,0.00,,,0.00,WUHU216HW,2013-02-18 18:35:00,
2013-02-18 13:39:00,31.9,8.4,30.17,WNW,293,4.0,9.4,37,0.00,,,0.00,WUHU216HW,2013-02-18 18:39:00,
2013-02-18 13:40:00,31.9,8.4,30.17,WNW,293,4.0,9.4,37,0.00,,,0.00,WUHU216HW,2013-02-18 18:40:00,
2013-02-18 13:44:00,31.9,7.7,30.17,NW,315,5.6,9.8,36,0.00,,,0.00,WUHU216HW,2013-02-18 18:44:00,
2013-02-18 13:45:00,31.9,8.3,30.17,WSW,248,3.8,9.8,37,0.00,,,0.00,WUHU216HW,2013-02-18 18:45:00,
2013-02-18 13:49:00,31.9,8.3,30.17,WNW,293,7.8,11.6,37,0.00,,,0.00,WUHU216HW,2013-02-18 18:49:00,
2013-02-18 13:50:00,31.8,8.3,30.17,West,270,3.6,11.6,37,0.00,,,0.00,WUHU216HW,2013-02-18 18:50:00,
2013-02-18 13:54:00,32.1,8.5,30.17,WNW,293,3.6,11.6,37,0.00,,,0.00,WUHU216HW,2013-02-18 18:54:00,
2013-02-18 13:55:00,32.1,8.5,30.17,North,0,2.7,11.6,37,0.00,,,0.00,WUHU216HW,2013-02-18 18:55:00,
2013-02-18 13:59:00,32.3,8.7,30.17,WSW,248,8.5,9.8,37,0.00,,,0.00,WUHU216HW,2013-02-18 18:59:00,
2013-02-18 14:01:00,32.3,8.1,30.17,West,270,6.9,9.8,36,0.00,,,0.00,WUHU216HW,2013-02-18 19:01:00,
2013-02-18 14:04:00,31.9,7.7,30.17,West,270,5.4,9.6,36,0.00,,,0.00,WUHU216HW,2013-02-18 19:04:00,
2013-02-18 14:06:00,31.9,8.3,30.17,NNW,338,3.8,9.6,37,0.00,,,0.00,WUHU216HW,2013-02-18 19:06:00,
2013-02-18 14:09:00,31.9,8.3,30.17,NW,315,4.0,9.6,37,0.00,,,0.00,WUHU216HW,2013-02-18 19:09:00,
2013-02-18 14:10:00,31.9,8.3,30.17,NW,315,4.0,6.9,37,0.00,,,0.00,WUHU216HW,2013-02-18 19:10:00,
2013-02-18 14:11:00,31.9,8.3,30.17,NW,315,4.0,5.4,37,0.00,,,0.00,WUHU216HW,2013-02-18 19:11:00,
2013-02-18 14:14:00,31.9,8.3,30.17,NW,315,4.0,4.0,37,0.00,,,0.00,WUHU216HW,2013-02-18 19:14:00,
2013-02-18 14:15:00,31.9,8.3,30.17,NW,315,4.0,4.0,37,0.00,,,0.00,WUHU216HW,2013-02-18 19:15:00,
2013-02-18 14:16:00,31.9,8.3,30.17,NW,315,4.0,4.0,37,0.00,,,0.00,WUHU216HW,2013-02-18 19:16:00,
2013-02-18 14:36:00,33.6,8.6,30.16,WNW,293,4.0,4.0,35,0.00,,,0.00,WUHU216HW,2013-02-18 19:36:00,
2013-02-18 14:37:00,33.6,8.6,30.16,WNW,293,4.0,4.0,35,0.00,,,0.00,WUHU216HW,2013-02-18 19:37:00,
2013-02-18 14:42:00,33.6,8.6,30.16,WNW,293,9.8,9.8,35,0.00,,,0.00,WUHU216HW,2013-02-18 19:42:00,
2013-02-18 14:47:00,33.4,9.1,30.16,West,270,5.4,9.8,36,0.00,,,0.00,WUHU216HW,2013-02-18 19:47:00,
2013-02-18 14:52:00,33.4,9.1,30.16,WNW,293,8.3,8.5,36,0.00,,,0.00,WUHU216HW,2013-02-18 19:52:00,
2013-02-18 14:57:00,33.2,8.9,30.16,North,0,5.4,8.3,36,0.00,,,0.00,WUHU216HW,2013-02-18 19:57:00,
2013-02-18 15:02:00,33.0,8.7,30.16,North,0,2.5,6.5,36,0.00,,,0.00,WUHU216HW,2013-02-18 20:02:00,
2013-02-18 15:07:00,33.0,8.1,30.17,WSW,248,4.9,6.5,35,0.00,,,0.00,WUHU216HW,2013-02-18 20:07:00,
2013-02-18 15:12:00,33.2,8.9,30.17,NNW,338,4.9,7.6,36,0.00,,,0.00,WUHU216HW,2013-02-18 20:12:00,
2013-02-18 15:17:00,33.0,8.7,30.17,NW,315,4.7,7.6,36,0.00,,,0.00,WUHU216HW,2013-02-18 20:17:00,
2013-02-18 15:22:00,33.4,9.1,30.17,North,0,2.5,6.9,36,0.00,,,0.00,WUHU216HW,2013-02-18 20:22:00,
2013-02-18 15:23:00,33.4,9.1,30.17,North,0,2.5,6.9,36,0.00,,,0.00,WUHU216HW,2013-02-18 20:23:00,
2013-02-18 15:27:00,33.0,8.1,30.17,West,270,6.3,6.9,35,0.00,,,0.00,WUHU216HW,2013-02-18 20:27:00,
2013-02-18 15:28:00,33.0,8.1,30.17,West,270,6.3,6.9,35,0.00,,,0.00,WUHU216HW,2013-02-18 20:28:00,
2013-02-18 15:32:00,33.0,8.1,30.17,SW,225,7.6,12.3,35,0.00,,,0.00,WUHU216HW,2013-02-18 20:32:00,
2013-02-18 15:33:00,33.0,8.1,30.17,SW,225,7.6,12.3,35,0.00,,,0.00,WUHU216HW,2013-02-18 20:33:00,
2013-02-18 15:38:00,33.0,8.1,30.17,WSW,248,7.4,12.3,35,0.00,,,0.00,WUHU216HW,2013-02-18 20:38:00,
2013-02-18 15:43:00,33.0,6.8,30.16,WNW,293,5.6,9.2,33,0.00,,,0.00,WUHU216HW,2013-02-18 20:43:00,
2013-02-18 15:48:00,32.8,7.9,30.15,NNW,338,3.6,7.4,35,0.00,,,0.00,WUHU216HW,2013-02-18 20:48:00,
2013-02-18 15:53:00,32.5,8.3,30.16,NNW,338,5.8,6.9,36,0.00,,,0.00,WUHU216HW,2013-02-18 20:53:00,
2013-02-18 15:58:00,32.4,8.1,30.16,NNW,338,2.5,6.9,36,0.00,,,0.00,WUHU216HW,2013-02-18 20:58:00,
2013-02-18 15:59:00,32.4,8.1,30.16,NNW,338,2.5,6.9,36,0.00,,,0.00,WUHU216HW,2013-02-18 20:59:00,
2013-02-18 16:03:00,32.4,8.1,30.16,WNW,293,3.8,6.9,36,0.00,,,0.00,WUHU216HW,2013-02-18 21:03:00,
2013-02-18 16:04:00,32.4,8.1,30.15,WNW,293,4.5,6.9,36,0.00,,,0.00,WUHU216HW,2013-02-18 21:04:00,
2013-02-18 16:08:00,32.8,9.1,30.16,WNW,293,6.7,6.9,37,0.00,,,0.00,WUHU216HW,2013-02-18 21:08:00,
2013-02-18 16:09:00,32.6,8.9,30.16,NNW,338,4.7,6.9,37,0.00,,,0.00,WUHU216HW,2013-02-18 21:09:00,
2013-02-18 16:14:00,32.4,8.1,30.16,North,0,4.7,8.5,36,0.00,,,0.00,WUHU216HW,2013-02-18 21:14:00,
2013-02-18 16:19:00,32.4,8.2,30.17,North,0,5.6,9.8,36,0.00,,,0.00,WUHU216HW,2013-02-18 21:19:00,
2013-02-18 16:24:00,32.4,8.2,30.17,West,270,2.7,9.8,36,0.00,,,0.00,WUHU216HW,2013-02-18 21:24:00,
2013-02-18 16:29:00,32.2,8.0,30.17,NW,315,5.6,7.8,36,0.00,,,0.00,WUHU216HW,2013-02-18 21:29:00,
2013-02-18 16:34:00,32.2,7.4,30.17,NW,315,6.3,7.8,35,0.00,,,0.00,WUHU216HW,2013-02-18 21:34:00,
2013-02-18 16:39:00,32.2,8.0,30.17,WNW,293,3.8,7.2,36,0.00,,,0.00,WUHU216HW,2013-02-18 21:39:00,
2013-02-18 16:44:00,32.0,8.4,30.17,NNW,338,5.4,6.3,37,0.00,,,0.00,WUHU216HW,2013-02-18 21:44:00,
2013-02-18 16:45:00,32.0,8.4,30.17,West,270,7.2,7.2,37,0.00,,,0.00,WUHU216HW,2013-02-18 21:45:00,
2013-02-18 16:49:00,31.9,8.4,30.16,NW,315,4.9,7.2,37,0.00,,,0.00,WUHU216HW,2013-02-18 21:49:00,
2013-02-18 16:50:00,31.9,8.4,30.16,NW,315,4.9,7.2,37,0.00,,,0.00,WUHU216HW,2013-02-18 21:50:00,
2013-02-18 16:55:00,31.7,8.2,30.17,NW,315,6.7,6.9,37,0.00,,,0.00,WUHU216HW,2013-02-18 21:55:00,
2013-02-18 17:00:00,31.6,8.0,30.17,North,0,4.5,6.9,37,0.00,,,0.00,WUHU216HW,2013-02-18 22:00:00,
2013-02-18 17:05:00,31.4,7.9,30.16,West,270,1.3,5.4,37,0.00,,,0.00,WUHU216HW,2013-02-18 22:05:00,
2013-02-18 17:10:00,31.2,8.3,30.16,WNW,293,2.2,4.5,38,0.00,,,0.00,WUHU216HW,2013-02-18 22:10:00,
2013-02-18 17:15:00,31.1,8.2,30.17,WNW,293,3.1,4.5,38,0.00,,,0.00,WUHU216HW,2013-02-18 22:15:00,
2013-02-18 17:20:00,30.7,8.4,30.17,WNW,293,3.8,3.8,39,0.00,,,0.00,WUHU216HW,2013-02-18 22:20:00,
2013-02-18 17:25:00,30.5,7.7,30.17,NW,315,2.9,4.0,38,0.00,,,0.00,WUHU216HW,2013-02-18 22:25:00,
2013-02-18 17:26:00,30.5,7.7,30.17,WNW,293,4.0,4.0,38,0.00,,,0.00,WUHU216HW,2013-02-18 22:26:00,
2013-02-18 17:30:00,30.3,8.1,30.17,West,270,1.3,4.0,39,0.00,,,0.00,WUHU216HW,2013-02-18 22:30:00,
2013-02-18 17:31:00,30.3,8.1,30.17,West,270,1.3,4.0,39,0.00,,,0.00,WUHU216HW,2013-02-18 22:31:00,
2013-02-18 17:35:00,30.0,7.3,30.17,WSW,248,0.7,4.0,38,0.00,,,0.00,WUHU216HW,2013-02-18 22:35:00,
2013-02-18 17:36:00,30.0,7.3,30.17,WSW,248,1.6,3.6,38,0.00,,,0.00,WUHU216HW,2013-02-18 22:36:00,
2013-02-18 17:40:00,29.6,6.9,30.17,WNW,293,2.7,3.8,38,0.00,,,0.00,WUHU216HW,2013-02-18 22:40:00,
2013-02-18 17:41:00,29.6,6.9,30.17,WNW,293,2.7,3.8,38,0.00,,,0.00,WUHU216HW,2013-02-18 22:41:00,
2013-02-18 17:45:00,29.5,7.3,30.16,West,270,2.2,3.8,39,0.00,,,0.00,WUHU216HW,2013-02-18 22:45:00,
2013-02-18 17:46:00,29.5,7.3,30.16,West,270,2.2,3.8,39,0.00,,,0.00,WUHU216HW,2013-02-18 22:46:00,
2013-02-18 17:51:00,29.2,7.1,30.17,West,270,2.5,2.5,39,0.00,,,0.00,WUHU216HW,2013-02-18 22:51:00,
2013-02-18 17:56:00,29.0,6.9,30.17,NNW,338,0.7,2.5,39,0.00,,,0.00,WUHU216HW,2013-02-18 22:56:00,
2013-02-18 18:01:00,28.6,7.1,30.17,West,270,1.8,2.5,40,0.00,,,0.00,WUHU216HW,2013-02-18 23:01:00,
2013-02-18 18:06:00,28.5,7.0,30.17,West,270,2.5,4.5,40,0.00,,,0.00,WUHU216HW,2013-02-18 23:06:00,
2013-02-18 18:11:00,28.3,7.4,30.18,WSW,248,2.5,4.5,41,0.00,,,0.00,WUHU216HW,2013-02-18 23:11:00,
2013-02-18 18:12:00,28.3,7.4,30.18,WSW,248,1.6,2.7,41,0.00,,,0.00,WUHU216HW,2013-02-18 23:12:00,
2013-02-18 18:16:00,27.9,7.1,30.18,WSW,248,1.3,2.7,41,0.00,,,0.00,WUHU216HW,2013-02-18 23:16:00,
2013-02-18 18:17:00,27.9,7.1,30.18,WSW,248,1.3,2.7,41,0.00,,,0.00,WUHU216HW,2013-02-18 23:17:00,
2013-02-18 18:21:00,27.7,7.4,30.18,WSW,248,1.8,1.8,42,0.00,,,0.00,WUHU216HW,2013-02-18 23:21:00,
2013-02-18 18:22:00,27.7,7.4,30.18,West,270,1.8,1.8,42,0.00,,,0.00,WUHU216HW,2013-02-18 23:22:00,
2013-02-18 18:26:00,27.7,7.4,30.18,West,270,3.8,3.8,42,0.00,,,0.00,WUHU216HW,2013-02-18 23:26:00,
2013-02-18 18:27:00,27.7,7.4,30.18,West,270,3.8,3.8,42,0.00,,,0.00,WUHU216HW,2013-02-18 23:27:00,
2013-02-18 18:31:00,27.7,7.4,30.18,WNW,293,2.0,4.3,42,0.00,,,0.00,WUHU216HW,2013-02-18 23:31:00,
2013-02-18 18:32:00,27.7,7.4,30.18,NNW,338,3.6,4.3,42,0.00,,,0.00,WUHU216HW,2013-02-18 23:32:00,
2013-02-18 18:36:00,27.8,7.5,30.18,WNW,293,3.4,4.3,42,0.00,,,0.00,WUHU216HW,2013-02-18 23:36:00,
2013-02-18 18:37:00,27.8,8.0,30.18,WNW,293,2.2,4.3,43,0.00,,,0.00,WUHU216HW,2013-02-18 23:37:00,
2013-02-18 18:42:00,27.8,8.0,30.18,West,270,1.8,3.8,43,0.00,,,0.00,WUHU216HW,2013-02-18 23:42:00,
2013-02-18 18:47:00,27.7,8.0,30.18,West,270,2.0,2.9,43,0.00,,,0.00,WUHU216HW,2013-02-18 23:47:00,
2013-02-18 18:52:00,27.8,8.1,30.18,WSW,248,2.0,3.6,43,0.00,,,0.00,WUHU216HW,2013-02-18 23:52:00,
2013-02-18 18:57:00,27.8,8.0,30.18,WSW,248,2.2,3.6,43,0.00,,,0.00,WUHU216HW,2013-02-18 23:57:00,
2013-02-18 18:58:00,27.8,8.0,30.18,WSW,248,1.1,3.4,43,0.00,,,0.00,WUHU216HW,2013-02-18 23:58:00,
2013-02-18 19:02:00,27.4,7.6,30.18,SSW,203,0.9,2.7,43,0.00,,,0.00,WUHU216HW,2013-02-19 00:02:00,
2013-02-18 19:03:00,27.2,7.5,30.18,SSW,203,0.9,2.7,43,0.00,,,0.00,WUHU216HW,2013-02-19 00:03:00,
2013-02-18 19:07:00,27.2,7.5,30.18,SSW,203,0.9,1.8,43,0.00,,,0.00,WUHU216HW,2013-02-19 00:07:00,
2013-02-18 19:08:00,27.2,7.5,30.18,SSW,203,0.9,1.8,43,0.00,,,0.00,WUHU216HW,2013-02-19 00:08:00,
2013-02-18 19:12:00,27.2,7.5,30.18,SSW,203,0.9,0.9,43,0.00,,,0.00,WUHU216HW,2013-02-19 00:12:00,
2013-02-18 19:33:00,26.2,7.6,30.18,SW,225,0.4,0.4,45,0.00,,,0.00,WUHU216HW,2013-02-19 00:33:00,
2013-02-18 19:38:00,26.1,7.5,30.18,South,180,0.9,0.9,45,0.00,,,0.00,WUHU216HW,2013-02-19 00:38:00,
2013-02-18 19:43:00,25.9,7.8,30.18,South,180,0.9,1.1,46,0.00,,,0.00,WUHU216HW,2013-02-19 00:43:00,
2013-02-18 19:48:00,26.1,8.5,30.18,South,180,0.7,2.2,47,0.00,,,0.00,WUHU216HW,2013-02-19 00:48:00,
2013-02-18 19:53:00,26.1,8.5,30.18,South,180,0.7,2.2,47,0.00,,,0.00,WUHU216HW,2013-02-19 00:53:00,
2013-02-18 19:59:00,26.7,8.5,30.18,SSW,203,0.7,0.7,46,0.00,,,0.00,WUHU216HW,2013-02-19 00:59:00,
2013-02-18 20:00:00,26.7,8.5,30.18,SSW,203,0.7,0.7,46,0.00,,,0.00,WUHU216HW,2013-02-19 01:00:00,
2013-02-18 20:04:00,26.5,8.4,30.18,South,180,1.6,1.6,46,0.00,,,0.00,WUHU216HW,2013-02-19 01:04:00,
2013-02-18 20:05:00,26.5,8.4,30.18,South,180,1.6,1.6,46,0.00,,,0.00,WUHU216HW,2013-02-19 01:05:00,
2013-02-18 20:08:00,26.5,8.4,30.18,SSW,203,0.4,0.4,46,0.00,,,0.00,WUHU216HW,2013-02-19 01:08:00,
2013-02-18 20:09:00,26.5,8.4,30.18,SSW,203,0.4,1.6,46,0.00,,,0.00,WUHU216HW,2013-02-19 01:09:00,
2013-02-18 20:10:00,26.5,8.4,30.18,SSW,203,0.4,1.6,46,0.00,,,0.00,WUHU216HW,2013-02-19 01:10:00,
2013-02-18 20:14:00,26.5,8.4,30.18,SSW,203,0.4,0.7,46,0.00,,,0.00,WUHU216HW,2013-02-19 01:14:00,
2013-02-18 20:15:00,26.5,8.4,30.18,SSW,203,0.4,0.7,46,0.00,,,0.00,WUHU216HW,2013-02-19 01:15:00,
2013-02-18 20:38:00,26.8,9.2,30.19,SSW,203,0.9,0.9,47,0.00,,,0.00,WUHU216HW,2013-02-19 01:38:00,
2013-02-18 20:43:00,26.8,9.2,30.18,WSW,248,0.2,0.9,47,0.00,,,0.00,WUHU216HW,2013-02-19 01:43:00,
2013-02-18 20:48:00,26.8,9.7,30.19,SSW,203,1.8,1.8,48,0.00,,,0.00,WUHU216HW,2013-02-19 01:48:00,
2013-02-18 20:53:00,27.1,9.9,30.19,South,180,1.6,2.9,48,0.00,,,0.00,WUHU216HW,2013-02-19 01:53:00,
2013-02-18 20:54:00,27.1,9.9,30.19,South,180,1.6,2.9,48,0.00,,,0.00,WUHU216HW,2013-02-19 01:54:00,
2013-02-18 20:58:00,27.1,9.9,30.19,South,180,1.6,2.9,48,0.00,,,0.00,WUHU216HW,2013-02-19 01:58:00,
2013-02-18 20:59:00,27.1,9.9,30.19,South,180,1.6,2.9,48,0.00,,,0.00,WUHU216HW,2013-02-19 01:59:00,
2013-02-18 21:03:00,27.1,9.9,30.18,SSE,158,0.4,1.8,48,0.00,,,0.00,WUHU216HW,2013-02-19 02:03:00,
2013-02-18 21:04:00,27.1,9.9,30.18,SSE,158,0.4,1.8,48,0.00,,,0.00,WUHU216HW,2013-02-19 02:04:00,
2013-02-18 21:05:00,26.9,9.7,30.19,SSE,158,0.4,1.8,48,0.00,,,0.00,WUHU216HW,2013-02-19 02:05:00,
2013-02-18 21:08:00,26.7,9.5,30.19,SSE,158,0.4,1.8,48,0.00,,,0.00,WUHU216HW,2013-02-19 02:08:00,
2013-02-18 21:09:00,26.7,9.5,30.18,SE,135,0.7,1.8,48,0.00,,,0.00,WUHU216HW,2013-02-19 02:09:00,
2013-02-18 21:10:00,26.5,9.4,30.18,SE,135,0.7,1.1,48,0.00,,,0.00,WUHU216HW,2013-02-19 02:10:00,
2013-02-18 21:13:00,26.5,9.8,30.18,SE,135,0.4,1.1,49,0.00,,,0.00,WUHU216HW,2013-02-19 02:13:00,
2013-02-18 21:14:00,26.4,9.7,30.18,SE,135,0.4,0.7,49,0.00,,,0.00,WUHU216HW,2013-02-19 02:14:00,
2013-02-18 21:15:00,26.4,9.7,30.18,SE,135,0.4,0.7,49,0.00,,,0.00,WUHU216HW,2013-02-19 02:15:00,
2013-02-18 21:19:00,26.4,10.2,30.18,SE,135,1.1,1.1,50,0.00,,,0.00,WUHU216HW,2013-02-19 02:19:00,
2013-02-18 21:20:00,26.4,10.2,30.18,ESE,113,0.4,1.1,50,0.00,,,0.00,WUHU216HW,2013-02-19 02:20:00,
2013-02-18 21:24:00,26.5,9.8,30.18,ESE,113,0.0,1.1,49,0.00,,,0.00,WUHU216HW,2013-02-19 02:24:00,
2013-02-18 21:25:00,26.4,9.7,30.18,ESE,113,0.0,1.1,49,0.00,,,0.00,WUHU216HW,2013-02-19 02:25:00,
2013-02-18 21:29:00,26.4,9.7,30.18,South,180,0.0,0.7,49,0.00,,,0.00,WUHU216HW,2013-02-19 02:29:00,
2013-02-18 21:30:00,26.4,9.7,30.18,South,180,0.0,0.2,49,0.00,,,0.00,WUHU216HW,2013-02-19 02:30:00,
2013-02-18 21:34:00,26.2,9.5,30.18,SW,225,0.0,0.0,49,0.00,,,0.00,WUHU216HW,2013-02-19 02:34:00,
2013-02-18 21:35:00,26.0,9.4,30.18,SW,225,0.0,0.0,49,0.00,,,0.00,WUHU216HW,2013-02-19 02:35:00,
2013-02-18 21:38:00,25.8,9.6,30.18,SSW,203,0.7,0.7,50,0.00,,,0.00,WUHU216HW,2013-02-19 02:38:00,
2013-02-18 21:39:00,25.8,9.6,30.18,SSW,203,0.7,1.3,50,0.00,,,0.00,WUHU216HW,2013-02-19 02:39:00,
2013-02-18 21:41:00,25.8,9.6,30.18,SSW,203,0.7,1.3,50,0.00,,,0.00,WUHU216HW,2013-02-19 02:41:00,
2013-02-18 21:44:00,25.8,9.6,30.18,SSW,203,0.7,1.3,50,0.00,,,0.00,WUHU216HW,2013-02-19 02:44:00,
2013-02-18 21:46:00,25.8,9.6,30.18,SSW,203,0.7,1.3,50,0.00,,,0.00,WUHU216HW,2013-02-19 02:46:00,
2013-02-18 22:00:00,25.5,10.3,30.18,SW,225,0.0,0.0,52,0.00,,,0.00,WUHU216HW,2013-02-19 03:00:00,
2013-02-18 22:05:00,25.3,10.1,30.18,South,180,0.0,0.0,52,0.00,,,0.00,WUHU216HW,2013-02-19 03:05:00,
2013-02-18 22:06:00,25.3,10.1,30.18,South,180,0.0,0.0,52,0.00,,,0.00,WUHU216HW,2013-02-19 03:06:00,
2013-02-18 22:10:00,25.3,10.1,30.18,SSW,203,0.0,0.0,52,0.00,,,0.00,WUHU216HW,2013-02-19 03:10:00,
2013-02-18 22:11:00,25.3,10.1,30.18,SSW,203,0.0,0.0,52,0.00,,,0.00,WUHU216HW,2013-02-19 03:11:00,
2013-02-18 22:15:00,25.3,10.1,30.18,SSW,203,0.0,0.2,52,0.00,,,0.00,WUHU216HW,2013-02-19 03:15:00,
2013-02-18 22:16:00,25.3,10.5,30.18,SSW,203,0.0,0.2,53,0.00,,,0.00,WUHU216HW,2013-02-19 03:16:00,
2013-02-18 22:20:00,25.3,10.5,30.18,SSW,203,2.5,2.5,53,0.00,,,0.00,WUHU216HW,2013-02-19 03:20:00,
2013-02-18 22:21:00,25.3,11.0,30.18,SW,225,1.1,2.5,54,0.00,,,0.00,WUHU216HW,2013-02-19 03:21:00,
2013-02-18 22:25:00,25.5,11.6,30.18,SSE,158,0.7,2.5,55,0.00,,,0.00,WUHU216HW,2013-02-19 03:25:00,
2013-02-18 22:26:00,25.5,11.6,30.18,South,180,1.3,2.5,55,0.00,,,0.00,WUHU216HW,2013-02-19 03:26:00,
2013-02-18 22:30:00,25.6,11.7,30.18,SSW,203,4.7,4.7,55,0.00,,,0.00,WUHU216HW,2013-02-19 03:30:00,
2013-02-18 22:31:00,25.6,11.7,30.18,SSE,158,0.9,4.7,55,0.00,,,0.00,WUHU216HW,2013-02-19 03:31:00,
2013-02-18 22:35:00,25.8,11.8,30.18,SW,225,0.4,4.7,55,0.00,,,0.00,WUHU216HW,2013-02-19 03:35:00,
2013-02-18 22:36:00,26.0,12.0,30.19,SW,225,1.1,4.7,55,0.00,,,0.00,WUHU216HW,2013-02-19 03:36:00,
2013-02-18 22:37:00,26.0,12.0,30.19,SW,225,1.1,4.7,55,0.00,,,0.00,WUHU216HW,2013-02-19 03:37:00,
2013-02-18 22:40:00,26.0,12.4,30.19,SSW,203,2.5,3.4,56,0.00,,,0.00,WUHU216HW,2013-02-19 03:40:00,
2013-02-18 22:41:00,26.0,12.9,30.18,WSW,248,2.0,3.4,57,0.00,,,0.00,WUHU216HW,2013-02-19 03:41:00,
2013-02-18 22:42:00,26.0,12.4,30.18,SSW,203,0.9,3.4,56,0.00,,,0.00,WUHU216HW,2013-02-19 03:42:00,
2013-02-18 22:45:00,26.2,12.6,30.18,South,180,2.2,3.4,56,0.00,,,0.00,WUHU216HW,2013-02-19 03:45:00,
2013-02-18 22:47:00,26.2,12.6,30.19,SW,225,0.4,3.4,56,0.00,,,0.00,WUHU216HW,2013-02-19 03:47:00,
2013-02-18 22:50:00,26.5,12.5,30.18,WSW,248,0.7,2.2,55,0.00,,,0.00,WUHU216HW,2013-02-19 03:50:00,
2013-02-18 22:52:00,26.5,12.5,30.19,SSW,203,3.4,3.4,55,0.00,,,0.00,WUHU216HW,2013-02-19 03:52:00,
2013-02-18 22:56:00,26.7,12.7,30.18,SSW,203,0.7,3.4,55,0.00,,,0.00,WUHU216HW,2013-02-19 03:56:00,
2013-02-18 22:57:00,26.7,12.7,30.18,SSW,203,0.7,3.4,55,0.00,,,0.00,WUHU216HW,2013-02-19 03:57:00,
2013-02-18 23:01:00,26.7,12.3,30.18,SSW,203,0.4,3.1,54,0.00,,,0.00,WUHU216HW,2013-02-19 04:01:00,
2013-02-18 23:02:00,26.7,12.3,30.18,SSW,203,0.4,3.1,54,0.00,,,0.00,WUHU216HW,2013-02-19 04:02:00,
2013-02-18 23:06:00,26.7,12.7,30.18,SSW,203,1.8,3.1,55,0.00,,,0.00,WUHU216HW,2013-02-19 04:06:00,
2013-02-18 23:08:00,26.7,13.1,30.18,WSW,248,3.8,3.8,56,0.00,,,0.00,WUHU216HW,2013-02-19 04:08:00,
2013-02-18 23:12:00,26.9,12.9,30.18,SW,225,3.8,3.8,55,0.00,,,0.00,WUHU216HW,2013-02-19 04:12:00,
2013-02-18 23:13:00,26.9,12.9,30.18,SSW,203,1.3,3.8,55,0.00,,,0.00,WUHU216HW,2013-02-19 04:13:00,
2013-02-18 23:17:00,26.9,12.9,30.18,SSW,203,2.0,3.8,55,0.00,,,0.00,WUHU216HW,2013-02-19 04:17:00,
2013-02-18 23:18:00,26.9,12.9,30.18,SW,225,0.7,3.8,55,0.00,,,0.00,WUHU216HW,2013-02-19 04:18:00,
2013-02-18 23:22:00,26.9,12.9,30.18,SSE,158,1.3,2.0,55,0.00,,,0.00,WUHU216HW,2013-02-19 04:22:00,
2013-02-18 23:23:00,26.9,12.9,30.18,SW,225,2.0,2.0,55,0.00,,,0.00,WUHU216HW,2013-02-19 04:23:00,
2013-02-18 23:27:00,26.9,12.9,30.18,SSE,158,2.9,2.9,55,0.00,,,0.00,WUHU216HW,2013-02-19 04:27:00,
2013-02-18 23:28:00,27.1,13.1,30.18,SSW,203,1.8,2.9,55,0.00,,,0.00,WUHU216HW,2013-02-19 04:28:00,
2013-02-18 23:32:00,27.1,13.1,30.18,South,180,2.7,2.9,55,0.00,,,0.00,WUHU216HW,2013-02-19 04:32:00,
2013-02-18 23:33:00,27.3,13.2,30.18,West,270,0.4,2.9,55,0.00,,,0.00,WUHU216HW,2013-02-19 04:33:00,
2013-02-18 23:37:00,27.4,13.3,30.17,SSW,203,0.7,2.7,55,0.00,,,0.00,WUHU216HW,2013-02-19 04:37:00,
2013-02-18 23:38:00,27.4,13.3,30.18,SSW,203,2.0,2.7,55,0.00,,,0.00,WUHU216HW,2013-02-19 04:38:00,
2013-02-18 23:42:00,27.4,13.3,30.18,South,180,0.4,2.5,55,0.00,,,0.00,WUHU216HW,2013-02-19 04:42:00,
2013-02-18 23:43:00,27.4,13.3,30.17,South,180,1.8,2.5,55,0.00,,,0.00,WUHU216HW,2013-02-19 04:43:00,
2013-02-18 23:48:00,27.4,13.3,30.17,SSW,203,1.1,2.5,55,0.00,,,0.00,WUHU216HW,2013-02-19 04:48:00,
2013-02-18 23:53:00,27.3,13.2,30.17,South,180,1.3,1.6,55,0.00,,,0.00,WUHU216HW,2013-02-19 04:53:00,
2013-02-18 23:58:00,27.1,13.1,30.17,SE,135,0.4,2.0,55,0.00,,,0.00,WUHU216HW,2013-02-19 04:58:00,
2013-02-18 23:59:00,27.1,13.1,30.17,SE,135,1.8,2.0,55,0.00,,,0.00,WUHU216HW,2013-02-19 04:59:00,